Richmond Hanover County, VA

8:54 PM EDT on April 25, 2017 (GMT -0400)
Hanover County Municipal

Weather History for KOFP - November, 2012

Change the Weather History Date:

Tuesday, November 13, 2012

  Actual Average Record
Temperature  
Mean Temperature 50 °F -  
Max Temperature 64 °F 57 °F 77 °F (1985)
Min Temperature 37 °F 34 °F 21 °F (1950)
Degree Days  
Heating Degree Days 14    
Moisture  
Dew Point 40 °F    
Average Humidity 75    
Maximum Humidity 93    
Minimum Humidity 56    
Precipitation  
Precipitation 0.02 in - - ()
Sea Level Pressure  
Sea Level Pressure 30.36 in    
Wind  
Wind Speed 6 mph (NNE)    
Max Wind Speed 10 mph    
Max Gust Speed -    
Averages and records for this station are not official NWS values.
T = Trace of Precipitation, MM = Missing Value Source: NWS Daily Summary

Daily Weather History Graph

Daily Weather History Graph

Search for Another Location

Airport or City:

Trip Planner

Search our weather history database for the weather conditions in past years. The results will help you decide how hot, cold, wet, or windy it might be!

Date:

Astronomy

Nov. 13, 2012 Rise Set
Actual Time 6:48 AM EST 4:59 PM EST
Civil Twilight 6:20 AM EST 5:27 PM EST
Nautical Twilight 5:48 AM EST 5:59 PM EST
Astronomical Twilight 5:17 AM EST 6:30 PM EST
Moon 6:23 AM EST (11/13) 4:51 PM EST (11/13)
Length of Visible Light 11h 07m
Length of Day
10h 11m
Waning Crescent, 0% of the Moon is Illuminated
Nov 13
Waning Crescent
Nov 13
New
Nov 20
First Quarter
Nov 28
Full
Dec 6
Last Quarter

Hourly Weather History & Observations

Time (EST) Temp. Windchill Dew Point Humidity Pressure Visibility Wind Dir Wind Speed Gust Speed Precip Events Conditions
12:54 AM 64.9 °F - 62.1 °F 90% 30.16 in - SSE 8.1 mph - N/A   Overcast
1:54 AM 64.9 °F - 61.0 °F 87% 30.15 in - South 10.4 mph - N/A   Overcast
2:37 AM 64.4 °F - 60.8 °F 88% 30.16 in - South 5.8 mph - N/A   Overcast
2:54 AM 64.9 °F - 61.0 °F 87% 30.16 in - South 4.6 mph - N/A   Overcast
11:54 AM 43.0 °F 40.3 °F 41.0 °F 93% 30.39 in - NNE 4.6 mph - 0.02 in Rain Light Rain
12:54 PM 44.1 °F 39.5 °F 41.0 °F 89% 30.37 in - North 8.1 mph - 0.00 in   Overcast
1:09 PM 44.6 °F 41.4 °F 39.2 °F 81% 30.37 in - North 5.8 mph - N/A   Overcast
1:21 PM 44.6 °F 40.7 °F 39.2 °F 81% 30.36 in - Variable 6.9 mph - N/A   Overcast
1:54 PM 45.0 °F 41.8 °F 39.0 °F 80% 30.35 in - Variable 5.8 mph - N/A   Overcast
2:54 PM 46.9 °F - 33.1 °F 59% 30.36 in - Variable 3.5 mph - N/A   Mostly Cloudy
3:54 PM 48.9 °F - 34.0 °F 56% 30.37 in - North 4.6 mph - N/A   Clear
4:54 PM 46.0 °F 43.9 °F 32.0 °F 58% 30.38 in - Variable 4.6 mph - N/A   Clear
5:54 PM 39.0 °F - 37.0 °F 93% 30.41 in - Calm Calm - N/A   Clear
6:54 PM 41.0 °F 39.0 °F 30.9 °F 67% 30.42 in - North 3.5 mph - N/A   Clear
7:54 PM 41.0 °F 39.0 °F 30.0 °F 65% 30.44 in - North 3.5 mph - N/A   Clear
8:54 PM 41.0 °F 36.4 °F 28.0 °F 60% 30.46 in - NNW 6.9 mph - N/A   Clear
9:54 PM 39.0 °F 35.7 °F 28.9 °F 67% 30.48 in - Variable 4.6 mph - N/A   Clear
10:54 PM 37.9 °F 33.5 °F 27.0 °F 65% 30.49 in - North 5.8 mph - N/A   Clear
11:54 PM 37.0 °F 34.5 °F 27.0 °F 67% 30.49 in - Variable 3.5 mph - N/A   Clear